This demonstration page uses our WeatherBlox Daily Observations layout. Learn more.

Left ArrowRight Arrow

39.01783, -85.05884

Hourly Observations for September 23, 2022

Temp ( °F °C ) Dew Point ( °F °C ) Humidity (%) Winds ( mph kmh ) Pressure ( in mb ) Visibility ( mi km ) Precip ( " mm )
12:52 am 00:52 Clear 53 11.7 45 7.2 74 74 N 9 15 30.15 1021 10 16 0.00 0.00
1:52 am 01:52 Clear 51 10.6 46 7.8 83 83 N 7 11 30.16 1021 10 16 0.00 0.00
2:52 am 02:52 Clear 52 11.1 45 7.2 77 77 NNE 10 17 30.15 1021 10 16 0.00 0.00
3:52 am 03:52 Clear 50 10 45 7.2 83 83 N 6 9 30.16 1021 10 16 0.00 0.00
4:52 am 04:52 Clear 48 8.9 45 7.2 89 89 N 7 11 30.18 1022 10 16 0.00 0.00
5:52 am 05:52 Clear 49 9.4 44 6.7 83 83 N 5 7 30.19 1022 10 16 0.00 0.00
6:52 am 06:52 Clear 48 8.9 44 6.7 86 86 NNW 6 9 30.21 1023 10 16 0.00 0.00
7:52 am 07:52 Mostly Sunny 48 8.9 43 6.1 83 83 NNW 7 11 30.23 1024 10 16 0.00 0.00
8:52 am 08:52 Mostly Sunny 50 10 44 6.7 80 80 N 6 9 30.24 1024 10 16 0.00 0.00
9:52 am 09:52 Mostly Sunny 54 12.2 43 6.1 66 66 ENE 6 9 30.26 1025 10 16 0.00 0.00
10:52 am 10:52 Mostly Cloudy 57 13.9 43 6.1 59 59 VRB 6 9 30.25 1025 10 16 0.00 0.00
11:52 am 11:52 Mostly Cloudy 60 15.6 44 6.7 55 55 ENE 7 11 30.25 1024 10 16 0.00 0.00
12:52 pm 12:52 Mostly Cloudy 63 17.2 41 5 44 44 VRB 3 6 30.23 1024 10 16 0.00 0.00
1:52 pm 13:52 Mostly Cloudy 65 18.3 42 5.6 43 43 NNE 9 15 30.22 1023 10 16 0.00 0.00
2:52 pm 14:52 Mostly Cloudy 65 18.3 40 4.4 40 40 Calm 30.18 1022 10 16 0.00 0.00
3:52 pm 15:52 Cloudy 67 19.4 41 5 39 39 NW 5 7 30.16 1022 10 16 0.00 0.00
4:52 pm 16:52 Cloudy 67 19.4 40 4.4 37 37 N 6 9 30.16 1021 10 16 0.00 0.00
5:52 pm 17:52 Cloudy 66 18.9 41 5 40 40 NNE 3 6 30.15 1021 10 16 0.00 0.00
6:52 pm 18:52 Cloudy 62 16.7 48 8.9 60 60 Calm 30.14 1021 10 16 0.00 0.00
7:52 pm 19:52 Cloudy 62 16.7 47 8.3 58 58 WNW 3 6 30.12 1020 10 16 0.00 0.00
8:52 pm 20:52 Cloudy 61 16.1 47 8.3 60 60 ESE 5 7 30.11 1020 10 16 0.00 0.00
9:52 pm 21:52 Cloudy 62 16.7 45 7.2 53 53 ESE 8 13 30.12 1020 10 16 0.00 0.00
10:52 pm 22:52 Cloudy with Light Rain 60 15.6 46 7.8 60 60 ESE 8 13 30.11 1020 10 16 0.01 0.13
11:52 pm 23:52 Cloudy 58 14.4 49 9.4 72 72 ESE 6 9 30.10 1019 10 16 0.01 0.25

Powered by AerisWeather